Year,Month,Day,Hour,Minute,Value (Times are PST for temperature in C)
2010,10,24,12,59,12.10
2010,10,24,13,00,12.20
2010,10,24,13,01,12.20
2010,10,24,13,02,12.10
2010,10,24,13,03,12.10
2010,10,24,13,04,12.10
2010,10,24,13,05,12.10
2010,10,24,13,06,12.10
2010,10,24,13,07,12.10
2010,10,24,13,08,12.10
2010,10,24,13,09,12.10
2010,10,24,13,10,11.90
2010,10,24,13,11,11.80
2010,10,24,13,12,11.70
2010,10,24,13,13,11.60
2010,10,24,13,14,11.60
2010,10,24,13,15,11.60
2010,10,24,13,16,11.50
2010,10,24,13,17,11.50
2010,10,24,13,18,11.50
2010,10,24,13,19,11.40
2010,10,24,13,20,11.40
2010,10,24,13,21,11.40
2010,10,24,13,22,11.30
2010,10,24,13,23,11.30
2010,10,24,13,24,11.30
2010,10,24,13,25,11.30
2010,10,24,13,26,11.30
2010,10,24,13,27,11.30
2010,10,24,13,28,11.30
2010,10,24,13,29,11.30
2010,10,24,13,30,11.30
2010,10,24,13,31,11.30
2010,10,24,13,32,11.40
2010,10,24,13,33,11.40
2010,10,24,13,34,11.50
2010,10,24,13,35,11.60
2010,10,24,13,36,11.60
2010,10,24,13,37,11.60
2010,10,24,13,38,11.70
2010,10,24,13,39,11.70
2010,10,24,13,40,11.80
2010,10,24,13,41,11.80
2010,10,24,13,42,11.70
2010,10,24,13,43,11.70
2010,10,24,13,44,11.70
2010,10,24,13,45,11.70
2010,10,24,13,46,11.70
2010,10,24,13,47,11.60
2010,10,24,13,48,11.60
2010,10,24,13,49,11.60
2010,10,24,13,50,11.60
2010,10,24,13,51,11.60
2010,10,24,13,52,11.60
2010,10,24,13,53,11.60
2010,10,24,13,54,11.60
2010,10,24,13,55,11.60
2010,10,24,13,56,11.60
2010,10,24,13,57,11.60
2010,10,24,13,58,11.60
2010,10,24,13,59,11.50
2010,10,24,14,00,11.60
2010,10,24,14,01,11.50
2010,10,24,14,02,11.50
2010,10,24,14,03,11.50
2010,10,24,14,04,11.40
2010,10,24,14,05,11.30
2010,10,24,14,06,11.20
2010,10,24,14,07,11.20
2010,10,24,14,08,11.10
2010,10,24,14,09,11.00
2010,10,24,14,10,10.90
2010,10,24,14,11,10.90
2010,10,24,14,12,10.80
2010,10,24,14,13,10.80
2010,10,24,14,14,10.80
2010,10,24,14,15,10.80
2010,10,24,14,16,10.80
2010,10,24,14,17,10.80
2010,10,24,14,18,10.80
2010,10,24,14,19,10.80
2010,10,24,14,20,10.80
2010,10,24,14,21,10.80
2010,10,24,14,22,10.80
2010,10,24,14,23,10.90
2010,10,24,14,24,11.00
2010,10,24,14,25,11.00
2010,10,24,14,26,11.10
2010,10,24,14,27,11.20
2010,10,24,14,28,11.30
2010,10,24,14,29,11.40
2010,10,24,14,30,11.50
2010,10,24,14,31,11.60
2010,10,24,14,32,11.60
2010,10,24,14,33,11.70
2010,10,24,14,34,11.70
2010,10,24,14,35,11.70
2010,10,24,14,36,11.70
2010,10,24,14,37,11.60
2010,10,24,14,38,11.60
2010,10,24,14,39,11.60
2010,10,24,14,40,11.60
2010,10,24,14,41,11.60
2010,10,24,14,42,11.60
2010,10,24,14,43,11.60
2010,10,24,14,44,11.60
2010,10,24,14,45,11.60
2010,10,24,14,46,11.60
2010,10,24,14,47,11.60
2010,10,24,14,48,11.50
2010,10,24,14,49,11.50
2010,10,24,14,50,11.50
2010,10,24,14,51,11.50
2010,10,24,14,52,11.40
2010,10,24,14,53,11.40
2010,10,24,14,54,11.30
2010,10,24,14,55,11.30
2010,10,24,14,56,11.20
2010,10,24,14,57,11.10
2010,10,24,14,58,11.10
2010,10,24,14,59,11.00
2010,10,24,15,00,10.90
2010,10,24,15,01,10.90
2010,10,24,15,02,10.80
2010,10,24,15,03,10.80
2010,10,24,15,04,10.80
2010,10,24,15,05,10.80
2010,10,24,15,06,10.70
2010,10,24,15,07,10.70
2010,10,24,15,08,10.70
2010,10,24,15,09,10.70
2010,10,24,15,10,10.70
2010,10,24,15,11,10.60
2010,10,24,15,12,10.60
2010,10,24,15,13,10.60
2010,10,24,15,14,10.50
2010,10,24,15,15,10.50
2010,10,24,15,16,10.40
2010,10,24,15,17,10.40
2010,10,24,15,18,10.40
2010,10,24,15,19,10.40
2010,10,24,15,20,10.40
2010,10,24,15,21,10.40
2010,10,24,15,22,10.40
2010,10,24,15,23,10.30
2010,10,24,15,24,10.30
2010,10,24,15,25,10.30
2010,10,24,15,26,10.30
2010,10,24,15,27,10.30
2010,10,24,15,28,10.30
2010,10,24,15,29,10.30
2010,10,24,15,30,10.30
2010,10,24,15,31,10.30
2010,10,24,15,32,10.30
2010,10,24,15,33,10.30
2010,10,24,15,34,10.30
2010,10,24,15,35,10.30
2010,10,24,15,36,10.30
2010,10,24,15,37,10.30
2010,10,24,15,38,10.40
2010,10,24,15,39,10.40
2010,10,24,15,40,10.40
2010,10,24,15,41,10.40
2010,10,24,15,42,10.30
2010,10,24,15,43,10.30
2010,10,24,15,44,10.30
2010,10,24,15,45,10.30
2010,10,24,15,46,10.30
2010,10,24,15,47,10.30
2010,10,24,15,48,10.30
2010,10,24,15,49,10.20
2010,10,24,15,50,10.20
2010,10,24,15,51,10.20
2010,10,24,15,52,10.20
2010,10,24,15,53,10.10
2010,10,24,15,54,10.10
2010,10,24,15,55,10.10
2010,10,24,15,56,10.10
2010,10,24,15,57,10.10
2010,10,24,15,58,10.10
2010,10,24,15,59,10.00
2010,10,24,16,00,10.00
2010,10,24,16,01,9.90
2010,10,24,16,02,9.90
2010,10,24,16,03,9.90
2010,10,24,16,04,9.80
2010,10,24,16,05,9.80
2010,10,24,16,06,9.80
2010,10,24,16,07,9.70
2010,10,24,16,08,9.70
2010,10,24,16,09,9.60
2010,10,24,16,10,9.60
2010,10,24,16,11,9.60
2010,10,24,16,12,9.60
2010,10,24,16,13,9.50
2010,10,24,16,14,9.50
2010,10,24,16,15,9.50
2010,10,24,16,16,9.50
2010,10,24,16,17,9.50
2010,10,24,16,18,9.40
2010,10,24,16,19,9.40
2010,10,24,16,20,9.30
2010,10,24,16,21,9.30
2010,10,24,16,22,9.30
2010,10,24,16,23,9.30
2010,10,24,16,24,9.30
2010,10,24,16,25,9.20
2010,10,24,16,26,9.20
2010,10,24,16,27,9.20
2010,10,24,16,28,9.20
2010,10,24,16,29,9.10
2010,10,24,16,30,9.10
2010,10,24,16,31,9.10
2010,10,24,16,32,9.10
2010,10,24,16,33,9.00
2010,10,24,16,34,9.00
2010,10,24,16,35,8.90
2010,10,24,16,36,8.90
2010,10,24,16,37,8.90
2010,10,24,16,38,8.90
2010,10,24,16,39,8.90
2010,10,24,16,40,8.90
2010,10,24,16,41,8.90
2010,10,24,16,42,8.90
2010,10,24,16,43,8.90
2010,10,24,16,44,8.90
2010,10,24,16,45,8.80
2010,10,24,16,46,8.80
2010,10,24,16,47,8.80
2010,10,24,16,48,8.80
2010,10,24,16,49,8.80
2010,10,24,16,50,8.80
2010,10,24,16,51,8.80
2010,10,24,16,52,8.80
2010,10,24,16,53,8.80
2010,10,24,16,54,8.80
2010,10,24,16,55,8.80
2010,10,24,16,56,8.80
2010,10,24,16,57,8.80
2010,10,24,16,58,8.80
2010,10,24,16,59,8.80
2010,10,24,17,00,8.80
2010,10,24,17,01,8.80
2010,10,24,17,02,8.80
2010,10,24,17,03,8.80
2010,10,24,17,04,8.80
2010,10,24,17,05,8.80
2010,10,24,17,06,8.80
2010,10,24,17,07,8.80
2010,10,24,17,08,8.70
2010,10,24,17,09,8.70
2010,10,24,17,10,8.70
2010,10,24,17,11,8.70
2010,10,24,17,12,8.70
2010,10,24,17,13,8.70
2010,10,24,17,14,8.70
2010,10,24,17,15,8.70
2010,10,24,17,16,8.70
2010,10,24,17,17,8.70
2010,10,24,17,18,8.80
2010,10,24,17,19,8.80
2010,10,24,17,20,8.80
2010,10,24,17,21,8.80
2010,10,24,17,22,8.80
2010,10,24,17,23,8.80
2010,10,24,17,24,8.80
2010,10,24,17,25,8.80
2010,10,24,17,26,8.80
2010,10,24,17,27,8.80
2010,10,24,17,28,8.80
2010,10,24,17,29,8.80
2010,10,24,17,30,8.80
2010,10,24,17,31,8.90
2010,10,24,17,32,8.90
2010,10,24,17,33,8.90
2010,10,24,17,34,8.90
2010,10,24,17,35,8.90
2010,10,24,17,36,8.90
2010,10,24,17,37,8.90
2010,10,24,17,38,8.90
2010,10,24,17,39,8.90
2010,10,24,17,40,8.90
2010,10,24,17,41,8.90
2010,10,24,17,42,8.90
2010,10,24,17,43,8.90
2010,10,24,17,44,8.90
2010,10,24,17,45,8.90
2010,10,24,17,46,8.90
2010,10,24,17,47,8.90
2010,10,24,17,48,8.90
2010,10,24,17,49,8.90
2010,10,24,17,50,8.90
2010,10,24,17,51,8.90
2010,10,24,17,52,8.90
2010,10,24,17,53,8.90
2010,10,24,17,54,8.90
2010,10,24,17,55,8.90
2010,10,24,17,56,8.90
2010,10,24,17,57,8.90
2010,10,24,17,58,8.90
2010,10,24,17,59,8.90
2010,10,24,18,00,8.90
2010,10,24,18,01,8.90
2010,10,24,18,02,8.90
2010,10,24,18,03,8.90
2010,10,24,18,04,8.90
2010,10,24,18,05,8.90
2010,10,24,18,06,8.90
2010,10,24,18,07,8.90
2010,10,24,18,08,8.90
2010,10,24,18,09,8.90
2010,10,24,18,10,8.90
2010,10,24,18,11,8.90
2010,10,24,18,12,8.90
2010,10,24,18,13,8.90
2010,10,24,18,14,8.90
2010,10,24,18,15,8.90
2010,10,24,18,16,8.90
2010,10,24,18,17,8.90
2010,10,24,18,18,8.90
2010,10,24,18,19,8.90
2010,10,24,18,20,8.90
2010,10,24,18,21,8.90
2010,10,24,18,22,8.90
2010,10,24,18,23,8.90
2010,10,24,18,24,8.90
2010,10,24,18,25,8.90
2010,10,24,18,26,8.90
2010,10,24,18,27,8.90
2010,10,24,18,28,8.90
2010,10,24,18,29,8.90
2010,10,24,18,30,8.90
2010,10,24,18,31,8.90
2010,10,24,18,32,8.90
2010,10,24,18,33,8.90
2010,10,24,18,34,8.90
2010,10,24,18,35,8.90
2010,10,24,18,36,8.90
2010,10,24,18,37,8.90
2010,10,24,18,38,8.90
2010,10,24,18,39,8.90
2010,10,24,18,40,8.90
2010,10,24,18,41,8.90
2010,10,24,18,42,8.90
2010,10,24,18,43,8.90
2010,10,24,18,44,8.90
2010,10,24,18,45,8.90
2010,10,24,18,46,8.90
2010,10,24,18,47,8.90
2010,10,24,18,48,8.90
2010,10,24,18,49,8.90
2010,10,24,18,50,8.90
2010,10,24,18,51,8.90
2010,10,24,18,52,8.90
2010,10,24,18,53,8.90
2010,10,24,18,54,8.90
2010,10,24,18,55,8.90
2010,10,24,18,56,8.90
2010,10,24,18,57,8.90
2010,10,24,18,58,8.90
2010,10,24,18,59,8.90
2010,10,24,19,00,8.90
2010,10,24,19,01,8.90
2010,10,24,19,02,8.90
2010,10,24,19,03,8.90
2010,10,24,19,04,8.90
2010,10,24,19,05,8.90
2010,10,24,19,06,8.90
2010,10,24,19,07,8.90
2010,10,24,19,08,8.90
2010,10,24,19,09,8.90
2010,10,24,19,10,8.90
2010,10,24,19,11,8.90
2010,10,24,19,12,8.90
2010,10,24,19,13,8.90
2010,10,24,19,14,8.90
2010,10,24,19,15,8.90
2010,10,24,19,16,8.90
2010,10,24,19,17,8.90
2010,10,24,19,18,8.90
2010,10,24,19,19,8.90
2010,10,24,19,20,8.90
2010,10,24,19,21,8.90
2010,10,24,19,22,8.90
2010,10,24,19,23,8.90
2010,10,24,19,24,8.90
2010,10,24,19,25,8.90
2010,10,24,19,26,8.90
2010,10,24,19,27,8.90
2010,10,24,19,28,8.90
2010,10,24,19,29,8.90
2010,10,24,19,30,8.90
2010,10,24,19,31,8.90
2010,10,24,19,32,8.90
2010,10,24,19,33,8.90
2010,10,24,19,34,8.90
2010,10,24,19,35,8.90
2010,10,24,19,36,8.90
2010,10,24,19,37,8.90
2010,10,24,19,38,8.90
2010,10,24,19,39,8.90
2010,10,24,19,40,8.90
2010,10,24,19,41,8.90
2010,10,24,19,42,8.90
2010,10,24,19,43,8.90
2010,10,24,19,44,8.90
2010,10,24,19,45,8.90
2010,10,24,19,46,8.90
2010,10,24,19,47,8.90
2010,10,24,19,48,8.90
2010,10,24,19,49,8.90
2010,10,24,19,50,8.90
2010,10,24,19,51,8.80
2010,10,24,19,52,8.80
2010,10,24,19,53,8.80
2010,10,24,19,54,8.80
2010,10,24,19,55,8.80
2010,10,24,19,56,8.80
2010,10,24,19,57,8.80
2010,10,24,19,58,8.80
2010,10,24,19,59,8.80
2010,10,24,20,00,8.80
2010,10,24,20,01,8.80
2010,10,24,20,02,8.80
2010,10,24,20,03,8.80
2010,10,24,20,04,8.70
2010,10,24,20,05,8.70
2010,10,24,20,06,8.70
2010,10,24,20,07,8.70
2010,10,24,20,08,8.70
2010,10,24,20,09,8.70
2010,10,24,20,10,8.70
2010,10,24,20,11,8.70
2010,10,24,20,12,8.60
2010,10,24,20,13,8.60
2010,10,24,20,14,8.60
2010,10,24,20,15,8.60
2010,10,24,20,16,8.60
2010,10,24,20,17,8.60
2010,10,24,20,18,8.60
2010,10,24,20,19,8.60
2010,10,24,20,20,8.60
2010,10,24,20,21,8.60
2010,10,24,20,22,8.60
2010,10,24,20,23,8.50
2010,10,24,20,24,8.50
2010,10,24,20,25,8.50
2010,10,24,20,26,8.50
2010,10,24,20,27,8.50
2010,10,24,20,28,8.50
2010,10,24,20,29,8.50
2010,10,24,20,30,8.40
2010,10,24,20,31,8.50
2010,10,24,20,32,8.50
2010,10,24,20,33,8.40
2010,10,24,20,34,8.40
2010,10,24,20,35,8.40
2010,10,24,20,36,8.40
2010,10,24,20,37,8.40
2010,10,24,20,38,8.40
2010,10,24,20,39,8.40
2010,10,24,20,40,8.40
2010,10,24,20,41,8.40
2010,10,24,20,42,8.40
2010,10,24,20,43,8.40
2010,10,24,20,44,8.40
2010,10,24,20,45,8.40
2010,10,24,20,46,8.40
2010,10,24,20,47,8.40
2010,10,24,20,48,8.40
2010,10,24,20,49,8.40
2010,10,24,20,50,8.40
2010,10,24,20,51,8.40
2010,10,24,20,52,8.40
2010,10,24,20,53,8.40
2010,10,24,20,54,8.40
2010,10,24,20,55,8.40
2010,10,24,20,56,8.40
2010,10,24,20,57,8.40
2010,10,24,20,58,8.40
2010,10,24,20,59,8.40
2010,10,24,21,00,8.40
2010,10,24,21,01,8.40
2010,10,24,21,02,8.40
2010,10,24,21,03,8.40
2010,10,24,21,04,8.40
2010,10,24,21,05,8.40
2010,10,24,21,06,8.40
2010,10,24,21,07,8.40
2010,10,24,21,08,8.40
2010,10,24,21,09,8.40
2010,10,24,21,10,8.40
2010,10,24,21,11,8.40
2010,10,24,21,12,8.40
2010,10,24,21,13,8.40
2010,10,24,21,14,8.40
2010,10,24,21,15,8.40
2010,10,24,21,16,8.40
2010,10,24,21,17,8.40
2010,10,24,21,18,8.40
2010,10,24,21,19,8.40
2010,10,24,21,20,8.40
2010,10,24,21,21,8.40
2010,10,24,21,22,8.40
2010,10,24,21,23,8.40
2010,10,24,21,24,8.40
2010,10,24,21,25,8.40
2010,10,24,21,26,8.40
2010,10,24,21,27,8.40
2010,10,24,21,28,8.40
2010,10,24,21,29,8.40
2010,10,24,21,30,8.40
2010,10,24,21,31,8.40
2010,10,24,21,32,8.40
2010,10,24,21,33,8.40
2010,10,24,21,34,8.40
2010,10,24,21,35,8.40
2010,10,24,21,36,8.40
2010,10,24,21,37,8.40
2010,10,24,21,38,8.40
2010,10,24,21,39,8.40
2010,10,24,21,40,8.40
2010,10,24,21,41,8.40
2010,10,24,21,42,8.40
2010,10,24,21,43,8.40
2010,10,24,21,44,8.40
2010,10,24,21,45,8.30
2010,10,24,21,46,8.30
2010,10,24,21,47,8.30
2010,10,24,21,48,8.30
2010,10,24,21,49,8.30
2010,10,24,21,50,8.30
2010,10,24,21,51,8.30
2010,10,24,21,52,8.30
2010,10,24,21,53,8.30
2010,10,24,21,54,8.30
2010,10,24,21,55,8.30
2010,10,24,21,56,8.30
2010,10,24,21,57,8.30
2010,10,24,21,58,8.30
2010,10,24,21,59,8.30
2010,10,24,22,00,8.30
2010,10,24,22,01,8.30
2010,10,24,22,02,8.30
2010,10,24,22,03,8.30
2010,10,24,22,04,8.30
2010,10,24,22,05,8.30
2010,10,24,22,06,8.30
2010,10,24,22,07,8.30
2010,10,24,22,08,8.30
2010,10,24,22,09,8.30
2010,10,24,22,10,8.30
2010,10,24,22,11,8.30
2010,10,24,22,12,8.30
2010,10,24,22,13,8.30
2010,10,24,22,14,8.30
2010,10,24,22,15,8.30
2010,10,24,22,16,8.30
2010,10,24,22,17,8.30
2010,10,24,22,18,8.30
2010,10,24,22,19,8.30
2010,10,24,22,20,8.30
2010,10,24,22,21,8.30
2010,10,24,22,22,8.30
2010,10,24,22,23,8.30
2010,10,24,22,24,8.30
2010,10,24,22,25,8.30
2010,10,24,22,26,8.30
2010,10,24,22,27,8.30
2010,10,24,22,28,8.40
2010,10,24,22,29,8.40
2010,10,24,22,30,8.40
2010,10,24,22,31,8.40
2010,10,24,22,32,8.40
2010,10,24,22,33,8.40
2010,10,24,22,34,8.40
2010,10,24,22,35,8.40
2010,10,24,22,36,8.40
2010,10,24,22,37,8.40
2010,10,24,22,38,8.40
2010,10,24,22,39,8.40
2010,10,24,22,40,8.40
2010,10,24,22,41,8.40
2010,10,24,22,42,8.40
2010,10,24,22,43,8.40
2010,10,24,22,44,8.40
2010,10,24,22,45,8.40
2010,10,24,22,46,8.40
2010,10,24,22,47,8.40
2010,10,24,22,48,8.40
2010,10,24,22,49,8.40
2010,10,24,22,50,8.40
2010,10,24,22,51,8.40
2010,10,24,22,52,8.40
2010,10,24,22,53,8.40
2010,10,24,22,54,8.40
2010,10,24,22,55,8.40
2010,10,24,22,56,8.40
2010,10,24,22,57,8.40
2010,10,24,22,58,8.40
2010,10,24,22,59,8.40
2010,10,24,23,00,8.40
2010,10,24,23,01,8.40
2010,10,24,23,02,8.40
2010,10,24,23,03,8.40
2010,10,24,23,04,8.40
2010,10,24,23,05,8.40
2010,10,24,23,06,8.40
2010,10,24,23,07,8.40
2010,10,24,23,08,8.40
2010,10,24,23,09,8.40
2010,10,24,23,10,8.40
2010,10,24,23,11,8.40
2010,10,24,23,12,8.40
2010,10,24,23,13,8.40
2010,10,24,23,14,8.40
2010,10,24,23,15,8.40
2010,10,24,23,16,8.30
2010,10,24,23,17,8.30
2010,10,24,23,18,8.30
2010,10,24,23,19,8.30
2010,10,24,23,20,8.30
2010,10,24,23,21,8.30
2010,10,24,23,22,8.30
2010,10,24,23,23,8.30
2010,10,24,23,24,8.30
2010,10,24,23,25,8.30
2010,10,24,23,26,8.30
2010,10,24,23,27,8.40
2010,10,24,23,28,8.40
2010,10,24,23,29,8.40
2010,10,24,23,30,8.40
2010,10,24,23,31,8.40
2010,10,24,23,32,8.40
2010,10,24,23,33,8.40
2010,10,24,23,34,8.40
2010,10,24,23,35,8.40
2010,10,24,23,36,8.40
2010,10,24,23,37,8.40
2010,10,24,23,38,8.40
2010,10,24,23,39,8.40
2010,10,24,23,40,8.40
2010,10,24,23,41,8.40
2010,10,24,23,42,8.40
2010,10,24,23,43,8.40
2010,10,24,23,44,8.40
2010,10,24,23,45,8.40
2010,10,24,23,46,8.40
2010,10,24,23,47,8.40
2010,10,24,23,48,8.40
2010,10,24,23,49,8.40
2010,10,24,23,50,8.40
2010,10,24,23,51,8.40
2010,10,24,23,52,8.40
2010,10,24,23,53,8.40
2010,10,24,23,54,8.40
2010,10,24,23,55,8.40
2010,10,24,23,56,8.40
2010,10,24,23,57,8.40
2010,10,24,23,58,8.40
2010,10,24,23,59,8.40
